YAOGAN-4

Last updated on Tue Sep 22 2026 00:02:58 GMT+0000 (Coordinated Universal Time)

1 33446U 08061A 26264.56640971 .00000503 00000+0 67904-4 0 9990 2 33446 97.9333 197.3827 0015515 114.0044 246.2796 14.83349914959953
UTC large
Height (km)
Speed (km/s)
/
Latitude / Longitude
Inclination (degrees)
Orbital Period (minutes)
Azimuth
Elevation
Range (km)
Doppler Factor

Next 0 passes for location: London (51.5072 / 0.1276)

No passes found over London.
YAOGAN-4